[[{"header":{"parameterUnit":"m.s-1","parameterCategory":1,"la1":30.2991,"la2":30.254,"lo1":-89.0895,"lo2":-89.0444,"dy":0.0017,"dx":0.0017,"nx":28,"ny":28,"refTime":"2025-07-08T09:00:00:Z","depth":0,"parameterNumber":2,"parameterNumberName":"U-component_of_WINDS"},"data":[0,0,0,0,0,0,0,0,0,0,0,0,0,0,0,0,0,0,0,0,0,0,0,0,0,0,0,0,0,0,0,0,0,0,0,0,0,0,0,0,0,0,0,0,0,0,0,0,0,0,0,0,0,0,0,0,0,0,2.7313,2.7314,0,2.7385,2.7386,2.7387,2.7289,2.7285,2.7282,2.7279,2.7354,2.7359,2.7364,0,0,0,0,0,0,0,0,0,0,0,0,0,2.7091,2.7095,2.7313,2.7314,2.7315,2.7385,2.7386,2.7387,2.729,2.7285,2.7281,2.7277,2.7352,2.7358,2.7365,0,0,0,0,0,0,0,0,0,0,0,0,0,2.7178,2.7097,2.7313,2.7275,2.7272,2.7385,2.7386,2.7387,2.7291,2.7285,2.728,2.7275,2.735,2.7358,2.7366,2.752,0,0,2.739,2.7393,0,0,0,0,0,0,0,0,2.7173,2.7186,2.7279,2.7278,2.7275,2.7323,2.7335,2.7432,2.7292,2.7284,2.7279,2.7272,2.7348,2.7356,2.7381,2.7524,2.7527,2.7391,2.7395,2.7399,2.7401,0,0,0,0,0,0,0,2.7167,2.7182,2.7342,2.7281,2.7278,2.7254,2.726,2.7353,2.7345,2.7284,2.7277,2.7287,2.7346,2.7373,2.7382,2.7528,2.739,2.7397,2.7402,2.7405,2.78,2.7805,0,0,0,0,0,0,2.7166,2.7178,2.7339,2.7344,2.721,2.7262,2.7269,2.7313,2.7343,2.7343,2.7291,2.7282,2.7362,2.7373,2.7384,2.7566,2.7399,2.7406,2.7411,2.7794,2.7801,2.7807,0,0,0,0,0,0,2.7161,2.7181,2.7336,2.7259,2.7277,2.7272,2.7321,2.7317,2.7344,2.7349,2.7347,2.7321,2.7359,2.7373,2.7487,2.7567,2.741,2.7417,2.7787,2.7796,2.7804,2.7931,0,0,0,0,0,0,2.7155,2.718,2.7239,2.7261,2.7282,2.7438,2.7326,2.7322,2.7358,2.7347,2.7376,2.7376,2.7356,2.7475,2.7495,2.7575,2.7423,2.778,2.7791,2.7801,2.792,2.7943,2.7963,0,0,0,0,0,2.7148,2.7272,2.7242,2.7262,2.7355,2.7443,2.7455,2.7428,2.7365,2.7424,2.7426,2.7375,2.7555,2.7488,2.7509,2.7593,2.7775,2.7788,2.78,2.791,2.7939,2.7963,0,0,0,0,0,0,2.726,2.7275,2.7241,2.7377,2.7409,2.7426,2.75,2.7459,2.7511,2.7498,2.7463,2.7471,2.7592,2.7604,2.7528,2.7743,2.7655,2.7672,2.7731,2.7758,2.7779,2.7774,2.743,0,0,0,0,0,2.73,2.7371,2.738,2.7498,2.7516,2.7506,2.7543,2.752,2.7552,2.7565,2.7576,2.761,2.7673,2.7717,2.7776,2.7921,2.7926,2.799,2.8011,2.8029,2.8044,2.8121,2.8149,2.7849,2.7849,2.7849,0,0,2.7385,2.7402,2.7448,2.7521,2.7544,2.7617,2.7518,2.76,2.7654,2.7578,2.7685,2.7695,2.773,2.786,2.7918,2.7873,2.8128,2.8045,2.8059,2.8065,2.8137,2.8166,2.8191,2.7858,2.7856,2.7855,0,0,2.7576,2.7596,2.7697,2.7721,2.7756,2.7747,2.7772,2.7795,2.7798,2.7905,2.7849,2.7913,2.8024,2.8051,2.8079,2.828,2.8234,2.83,2.8413,2.8488,2.8512,2.8533,2.8603,2.8629,2.8316,2.8316,2.8316,0,2.7677,2.7785,2.7753,2.7839,2.7873,2.7807,2.7908,2.7933,2.7986,2.8011,2.796,2.8097,2.8117,2.8251,2.83,2.8326,2.8352,2.8297,2.8511,2.8531,2.855,2.8617,2.8644,2.8324,2.8323,2.8322,2.8321,0,2.7906,2.7982,2.8059,2.8111,2.8153,2.8246,2.8229,2.8275,2.8248,2.8246,2.8355,2.8376,2.8437,2.8468,2.8443,2.8599,2.857,2.8516,2.8426,2.8587,2.8649,2.8675,2.8335,2.8332,2.833,2.8328,0,0,2.817,2.8203,2.8232,2.8254,2.8287,2.8345,2.8435,2.8494,2.8535,2.8573,2.8647,2.8743,2.8692,2.8725,2.8702,2.8768,2.8924,2.8705,2.8706,2.8745,2.9096,2.9136,2.9166,2.8894,2.8899,2.8903,2.9093,0,2.836,2.8515,2.8489,2.864,2.8709,2.8647,2.8725,2.8754,2.8753,2.8812,2.8811,2.8879,2.8808,2.8827,2.889,2.8892,2.8994,2.8878,2.8962,2.8966,2.8955,2.9199,2.9241,2.942,2.9117,2.9121,2.9124,0,2.8603,2.8649,2.8806,2.8828,2.8856,2.8926,2.8978,2.9035,2.9066,2.9061,2.9097,2.9062,2.9151,2.906,2.9182,2.9104,2.9137,2.9143,2.9149,2.9156,2.9054,2.9211,2.9476,2.9503,2.9162,2.9159,2.9157,0,2.8779,2.8881,2.8987,2.9008,2.9036,2.9087,2.9101,2.9127,2.9164,2.921,2.9233,2.9289,2.9319,2.9363,2.9344,2.928,2.947,2.9377,2.9467,2.9468,2.951,2.9507,2.9783,2.9533,2.9533,2.9532,2.9532,0,2.8993,2.9091,2.9066,2.9132,2.924,2.9209,2.9317,2.9323,2.9347,2.9412,2.9363,2.9425,2.9396,2.9457,2.9442,2.9545,2.9559,2.9558,2.9552,2.9562,2.9562,2.9582,2.9569,2.9539,2.9538,2.9536,2.9535,0,2.9207,2.9195,2.9307,2.9323,2.933,2.9409,2.9423,2.9484,2.9479,2.9563,2.9581,2.9574,2.9642,2.9627,2.9703,2.9693,2.9822,2.9802,2.9811,2.9806,2.9897,2.9888,3.0195,3.0233,2.9959,2.9962,2.9964,0,2.9345,2.9419,2.9443,2.9483,2.9501,2.9566,2.9603,2.9576,2.9617,2.9657,2.9713,2.9777,2.9827,2.9939,2.9941,2.9998,2.9979,3.0082,2.9987,2.9993,2.9979,2.9974,2.9981,3.0101,3.0104,3.0107,3.0109,0,2.9589,2.9579,2.9634,2.9688,2.9734,2.9774,2.9811,2.9846,2.9822,2.987,2.9939,2.9978,3.0054,3.0118,3.0171,3.0185,3.0143,3.0139,3.0162,3.0172,3.0174,3.0173,2.9862,3.0132,3.0129,3.0128,3.0127,3.0126,2.9769,2.9831,2.9857,2.992,2.9944,2.9979,3.0037,3.0039,3.0096,3.0156,3.0136,3.0215,3.0243,3.0309,3.033,3.0391,3.0352,3.0387,3.0395,3.0404,3.0414,3.0165,3.0401,3.04,3.0399,3.0399,3.0398,0,3.001,3.0023,3.0082,3.0133,3.0183,3.0139,3.0176,3.022,3.029,3.032,3.0369,3.0448,3.051,3.0516,3.0574,3.0621,3.0604,3.0637,3.0633,3.0637,3.0447,3.042,3.0651,3.0651,3.0651,3.0651,3.0651,3.065,3.0141,3.0243,3.0236,3.035,3.0363,3.0439,3.0464,3.0495,3.0518,3.0609,3.0659,3.0663,3.0683,3.0742,3.0796,3.0796,3.0819,3.0861,3.0854,3.0676,3.065,3.0626,3.0601,3.0866,3.0866,3.1038,3.104,3.1041]},{"header":{"parameterUnit":"m.s-1","parameterCategory":1,"la1":30.2991,"la2":30.254,"lo1":-89.0895,"lo2":-89.0444,"dy":0.0017,"dx":0.0017,"nx":28,"ny":28,"refTime":"2025-07-08T09:00:00:Z","depth":0,"parameterNumber":3,"parameterNumberName":"V-component_of_WINDS"},"data":[0,0,0,0,0,0,0,0,0,0,0,0,0,0,0,0,0,0,0,0,0,0,0,0,0,0,0,0,0,0,0,0,0,0,0,0,0,0,0,0,0,0,0,0,0,0,0,0,0,0,0,0,0,0,0,0,0,0,0.8459,0.8459,0,0.8531,0.8532,0.8533,0.851,0.8509,0.8507,0.8506,0.8581,0.8585,0.8588,0,0,0,0,0,0,0,0,0,0,0,0,0,0.8302,0.8305,0.8459,0.8459,0.846,0.8531,0.8532,0.8533,0.851,0.8509,0.8507,0.8505,0.858,0.8584,0.8588,0,0,0,0,0,0,0,0,0,0,0,0,0,0.8371,0.8305,0.8458,0.8458,0.8458,0.8531,0.8532,0.8533,0.8511,0.8509,0.8506,0.8504,0.8579,0.8584,0.8589,0.8667,0,0,0.8605,0.8607,0,0,0,0,0,0,0,0,0.8368,0.8377,0.8457,0.8458,0.8459,0.8509,0.8504,0.8578,0.8511,0.8491,0.8506,0.8503,0.8559,0.8566,0.8585,0.867,0.8674,0.8605,0.8608,0.861,0.8612,0,0,0,0,0,0,0,0.8363,0.8374,0.8487,0.8458,0.8459,0.8454,0.8461,0.8518,0.8537,0.8493,0.8491,0.85,0.8559,0.858,0.8586,0.8675,0.8605,0.861,0.8613,0.8615,0.8828,0.883,0,0,0,0,0,0,0.8357,0.837,0.8485,0.8489,0.8406,0.8459,0.8467,0.8495,0.8536,0.8541,0.8502,0.8499,0.8572,0.858,0.8589,0.8683,0.861,0.8615,0.8618,0.8825,0.8828,0.8831,0,0,0,0,0,0,0.8354,0.8368,0.8482,0.8429,0.8444,0.8464,0.8496,0.8498,0.8518,0.8543,0.8547,0.8519,0.857,0.8581,0.8647,0.8685,0.8618,0.8622,0.8822,0.8826,0.883,0.8871,0,0,0,0,0,0,0.8349,0.8367,0.8396,0.843,0.8446,0.854,0.8498,0.8501,0.8527,0.8524,0.8561,0.8564,0.8569,0.864,0.8652,0.8691,0.8626,0.8819,0.8824,0.8828,0.8866,0.8876,0.8884,0,0,0,0,0,0.8344,0.8405,0.8398,0.8412,0.8484,0.8542,0.8551,0.8555,0.853,0.856,0.8576,0.8563,0.8679,0.8647,0.8661,0.8701,0.8816,0.8822,0.8828,0.8863,0.8874,0.8884,0,0,0,0,0,0,0.8376,0.841,0.8402,0.8476,0.8506,0.8538,0.8576,0.8567,0.8605,0.86,0.8604,0.8613,0.868,0.8697,0.8661,0.8779,0.8744,0.8753,0.8765,0.8776,0.8785,0.878,0.8631,0,0,0,0,0,0.8392,0.8435,0.8463,0.8526,0.8541,0.8556,0.8581,0.8582,0.8613,0.8626,0.8647,0.8678,0.8721,0.8749,0.8791,0.8868,0.8876,0.8903,0.8912,0.8919,0.8927,0.8969,0.8981,0.885,0.885,0.885,0,0,0.8425,0.8449,0.8476,0.8533,0.8556,0.8601,0.8567,0.8616,0.865,0.8633,0.8697,0.8713,0.8748,0.882,0.8853,0.8837,0.8964,0.8926,0.8932,0.8936,0.8976,0.8988,0.9,0.8854,0.8853,0.8852,0,0,0.8508,0.8531,0.8585,0.8609,0.8644,0.8654,0.8667,0.87,0.871,0.8773,0.8762,0.8802,0.8876,0.8901,0.8924,0.9016,0.9006,0.9029,0.9075,0.9116,0.9127,0.9136,0.9169,0.9181,0.9037,0.9037,0.9037,0,0.8545,0.8613,0.8615,0.8665,0.869,0.8676,0.8732,0.8755,0.8802,0.882,0.8801,0.8893,0.8916,0.8994,0.9016,0.9035,0.905,0.9026,0.9125,0.9134,0.9143,0.9174,0.9187,0.904,0.9039,0.9039,0.9039,0,0.8656,0.8703,0.8743,0.8788,0.8818,0.8871,0.8881,0.8911,0.8908,0.892,0.8985,0.9011,0.9057,0.9075,0.9074,0.9153,0.9142,0.9124,0.9089,0.9158,0.9188,0.92,0.9044,0.9043,0.9042,0.9041,0,0,0.8763,0.8808,0.8823,0.8843,0.888,0.8917,0.8969,0.9013,0.9039,0.9071,0.9115,0.9178,0.9161,0.9187,0.9188,0.9224,0.9295,0.9201,0.9202,0.9218,0.9384,0.9398,0.9412,0.9288,0.929,0.9292,0.9381,0,0.885,0.8941,0.8944,0.9027,0.9071,0.9057,0.9103,0.9131,0.9142,0.9181,0.9194,0.9239,0.9213,0.9229,0.9263,0.9279,0.9329,0.9273,0.9329,0.9331,0.9321,0.9427,0.9442,0.9525,0.9393,0.9395,0.9396,0,0.8963,0.8999,0.9087,0.9117,0.9136,0.9176,0.9217,0.9254,0.9285,0.9291,0.932,0.9315,0.9368,0.9331,0.9405,0.9367,0.939,0.9401,0.9404,0.941,0.9368,0.9436,0.9551,0.9564,0.9414,0.9413,0.9412,0,0.9033,0.9103,0.9164,0.9182,0.9219,0.9248,0.9265,0.9294,0.932,0.9356,0.9373,0.9414,0.9437,0.947,0.9476,0.9449,0.955,0.9513,0.9557,0.9557,0.9579,0.9578,0.97,0.9594,0.9593,0.9593,0.9593,0,0.913,0.9184,0.9195,0.9233,0.9293,0.9296,0.9356,0.9371,0.9396,0.9437,0.9428,0.9466,0.9473,0.9513,0.9518,0.9578,0.9589,0.9595,0.9596,0.9596,0.9596,0.9612,0.9607,0.9596,0.9596,0.9595,0.9595,0,0.9218,0.9228,0.9294,0.9323,0.9332,0.9375,0.94,0.9437,0.9447,0.9498,0.951,0.9527,0.9573,0.9583,0.9638,0.9642,0.9713,0.9708,0.9703,0.9702,0.9745,0.9741,0.9883,0.9901,0.9782,0.9783,0.9784,0,0.9279,0.9321,0.9354,0.938,0.9399,0.9441,0.9468,0.9472,0.95,0.9538,0.957,0.9615,0.9651,0.9726,0.9743,0.9785,0.9781,0.9828,0.9788,0.9786,0.9782,0.978,0.9784,0.9836,0.9837,0.9838,0.9839,0,0.9388,0.939,0.9429,0.9469,0.9501,0.9533,0.9563,0.9585,0.9593,0.9625,0.9672,0.97,0.9756,0.9801,0.9843,0.986,0.9852,0.9851,0.9864,0.9865,0.986,0.9863,0.9724,0.9848,0.9847,0.9847,0.9846,0.9846,0.9464,0.95,0.9529,0.9572,0.9595,0.9624,0.9659,0.9674,0.9713,0.9758,0.9758,0.9809,0.9839,0.9894,0.9914,0.9954,0.994,0.9958,0.9962,0.9967,0.9971,0.9853,0.9962,0.9962,0.9962,0.9961,0.9961,0,0.9572,0.959,0.9629,0.9672,0.9706,0.9693,0.9726,0.9755,0.98,0.9829,0.9864,0.9918,0.9961,0.9981,1.0024,1.0053,1.005,1.0064,1.0062,1.0066,0.9981,0.9966,1.0066,1.0066,1.0066,1.0066,1.0066,1.0065,0.9632,0.9692,0.9698,0.9769,0.9787,0.9837,0.9856,0.9883,0.9905,0.9965,1.0001,1.0013,1.0039,1.0083,1.0122,1.0127,1.0143,1.016,1.0163,1.0083,1.0072,1.0062,1.0048,1.0163,1.0163,1.0244,1.0245,1.0246]}]]